Regional Weather Roundup
Issued by NWS Sterling, VA

Home | Current Version | Previous Version | Text Only | Print | Product List | Glossary Off
Versions: 1 2 3 4 5 6 7 8 9 10 11 12 13 14 15 16 17 18 19 20 21 22 23 24 25 26 27 28

000
ASUS41 KLWX 302110
RWRLWX

REGIONAL WEATHER ROUNDUP
NATIONAL WEATHER SERVICE BALTIMORE MD/WASHINGTON DC
500 PM EDT THU OCT 30 2014

Note: "FAIR" indicates few or no clouds below 12,000 feet
with no significant weather and/or obstructions to visibility.
 TC=TEMPERATURE CELSIUS

 * =Non NWS site. Station does not report precipitation (e.g. rain,
    snow, etc.), thunder, or fog.

DCZ001-MDZ009-015-VAZ040>042-051-053>054-302200-
WASHINGTON METRO

CITY           SKY/WX    TMP DP  RH WIND       PRES   REMARKS
WASHINGTON NAT PTSUNNY   59  37  44 NW10      30.03R
DULLES         PTSUNNY   54  36  50 NW13      30.03S
ANDREWS AFB    PTSUNNY   56  37  49 NW12      30.02R
FT BELVOIR     CLOUDY    58  35  43 NW9       30.03S
QUANTICO       PTSUNNY   58  34  40 NW10      30.04R
COLLEGE PARK*  CLOUDY    57  37  47 N8        30.02S
LEESBURG*      CLOUDY    54  39  58 N7        30.04S
GAITHERSBURG*  CLOUDY    54  37  54 NW5       30.06S

$$

MDZ006>007-011-014-302200-
BALTIMORE METRO

CITY           SKY/WX    TMP DP  RH WIND       PRES   REMARKS
BWI AIRPORT    PTSUNNY   56  38  50 NW5       30.01F
MD SCIENCE CTR   N/A     57  36  45 MISG      30.02S
MARTIN STATE   CLOUDY    57  43  58 CALM      30.03S
ANNAPOLIS      PTSUNNY   57  39  51 N9        30.01S
FORT MEADE*    MOSUNNY   54  37  54 NW6       30.04S

$$

MDZ012-015-019>023-302200-
MARYLAND EASTERN SHORE

CITY           SKY/WX    TMP DP  RH WIND       PRES   REMARKS
OCEAN CITY     SUNNY     61  39  44 NW6       29.99R
SALISBURY      SUNNY     61  37  41 W8        29.99S
BAY BRIDGE AP*   N/A     57  36  44 NW10      30.01S
CAMBRIDGE*     SUNNY     59  36  41 NW9       30.00S
EASTON*        MOSUNNY   59  41  51 N9        30.04S

$$

MDZ017>025-302200-
SOUTHERN MARYLAND

CITY           SKY/WX    TMP DP  RH WIND       PRES   REMARKS
PATUXENT RIVER PTSUNNY   56  41  57 NE7       30.01R
ST INIGOES     PTSUNNY   59  39  47 NE6       30.00S
LEONARDTOWN*   CLOUDY    55  39  54 CALM      30.02S

$$

MDZ003>005-302200-
NORTH CENTRAL MARYLAND

CITY           SKY/WX    TMP DP  RH WIND       PRES   REMARKS
FREDERICK*     CLOUDY    59  36  41 N6        30.06S
HAGERSTOWN APT CLOUDY    53  37  54 NW5       30.04S
WESTMINSTER*   CLOUDY    54  36  50 W6        30.02F

$$

MDZ501>502-302200-
WESTERN MARYLAND

CITY           SKY/WX    TMP DP  RH WIND       PRES   REMARKS
OAKLAND*       CLOUDY    39  32  75 NW3       30.03S
CUMBERLAND*    CLOUDY    52  32  46 CALM      30.09S

$$

VAZ025>031-302200-
SHENANDOAH VALLEY

CITY           SKY/WX    TMP DP  RH WIND       PRES   REMARKS
WINCHESTER*    CLOUDY    52  32  46 NW8       30.05S
FRONT ROYAL*   CLOUDY    52  36  54 NW5       30.04S
LURAY*         CLOUDY    54  37  54 CALM      30.05S
NEW MARKET*    CLOUDY    51  33  50 N6        30.05S
STAUNTON*      SUNNY     53  32  46 NE10      30.06R
WAYNESBORO*    CLOUDY    50  34  53 N7        30.03R

$$

WVZ021-048>050-054>055-302200-
EASTERN WEST VIRGINIA PANHANDLE

CITY           SKY/WX    TMP DP  RH WIND       PRES   REMARKS
MARTINSBURG    CLOUDY    54  33  45 NW8       30.05S
PETERSBURG*    CLOUDY    51  31  45 CALM      30.06S

$$

VAZ036>039-050-302200-
CENTRAL FOOTHILLS

CITY           SKY/WX    TMP DP  RH WIND       PRES   REMARKS
CHARLOTTESVILL SUNNY     57  34  41 N7        30.03R
CULPEPER*      PTSUNNY   57  34  41 NW7       30.04S
ORANGE*        SUNNY     55  36  47 NW6       30.05R
GORDONSVILLE*  FAIR      55  34  45 N6        30.02S
WARRENTON*     CLOUDY    58  42  54 NW8       30.03S

$$

VAZ055>057-302200-
NORTH AND CENTRAL PIEDMONT

CITY           SKY/WX    TMP DP  RH WIND       PRES   REMARKS
FREDERICKSBRG* CLOUDY    60  37  42 NW7       30.01S
STAFFORD*      PTSUNNY   56  35  44 NW9       30.07R

$$

NCZ024-NYZ072-PAZ021-071-VAZ022-071-302200-
OTHER REGIONAL OBSERVATIONS

CITY           SKY/WX    TMP DP  RH WIND       PRES   REMARKS
NEW YORK CITY  PTCLDY    55  33  43 NW6       30.00R
PHILADELPHIA   PTCLDY    58  36  43 N10       30.00R
PITTSBURGH     CLOUDY    48  37  65 W6        30.05S
ROANOKE        MOSUNNY   60  34  37 NW8       30.02S
RICHMOND       MOSUNNY   63  38  39 N6        30.00F
RALEIGH        MOSUNNY   65  40  39 NE6       29.98S

$$

ANZ530>537-302200-
MARINE OBSERVATIONS

STATION/POSITION TIME  TEMP    WIND        PRES
                       AIR SEA DIR/SP/G
                 (UTC) (F)     (DEG/KT/KT) (MB)
THOMAS PT LIGHT  2100   57 61  360/ 11/ 13 1017.2R
BALT KEY BRIDGE  2100   56     310/  9/ 11 1016.1S
COVE POINT       2100   56      40/  7/ 10 1016.0S
LEWISETTA        2100   60 63  310/  7/  8 1015.6F
SOLOMONS ISLAND  2100      63                N/A
PINEY POINT      2100          310/ 13/ 14   N/A

$$




USA.gov is the U.S. government's official web portal to all federal, state and local government web resources and services.